Year,Month,Day,Hour,Minute,Value (Times are PST for barometer in hPa)
2021,11,09,00,00,994.85
2021,11,09,00,01,994.75
2021,11,09,00,02,994.68
2021,11,09,00,03,994.62
2021,11,09,00,04,994.48
2021,11,09,00,05,994.52
2021,11,09,00,06,994.45
2021,11,09,00,07,994.48
2021,11,09,00,08,994.41
2021,11,09,00,09,994.31
2021,11,09,00,10,994.41
2021,11,09,00,11,994.41
2021,11,09,00,12,994.21
2021,11,09,00,13,994.31
2021,11,09,00,14,994.24
2021,11,09,00,15,994.28
2021,11,09,00,16,994.21
2021,11,09,00,17,994.14
2021,11,09,00,18,994.04
2021,11,09,00,19,994.21
2021,11,09,00,20,993.97
2021,11,09,00,21,994.07
2021,11,09,00,22,993.94
2021,11,09,00,23,993.80
2021,11,09,00,24,993.97
2021,11,09,00,25,993.97
2021,11,09,00,26,993.97
2021,11,09,00,27,993.91
2021,11,09,00,28,994.01
2021,11,09,00,29,993.97
2021,11,09,00,30,994.01
2021,11,09,00,31,993.85
2021,11,09,00,32,994.04
2021,11,09,00,33,993.94
2021,11,09,00,34,993.91
2021,11,09,00,35,993.84
2021,11,09,00,36,993.94
2021,11,09,00,37,993.94
2021,11,09,00,38,993.87
2021,11,09,00,39,993.53
2021,11,09,00,40,993.57
2021,11,09,00,41,993.60
2021,11,09,00,42,993.57
2021,11,09,00,43,993.57
2021,11,09,00,44,993.67
2021,11,09,00,45,993.67
2021,11,09,00,46,993.63
2021,11,09,00,47,993.53
2021,11,09,00,48,993.67
2021,11,09,00,49,993.63
2021,11,09,00,50,993.53
2021,11,09,00,51,993.60
2021,11,09,00,52,993.67
2021,11,09,00,53,993.67
2021,11,09,00,54,993.63
2021,11,09,00,55,993.47
2021,11,09,00,56,993.63
2021,11,09,00,57,993.67
2021,11,09,00,58,993.57
2021,11,09,00,59,993.47
2021,11,09,01,00,993.63
2021,11,09,01,01,993.57
2021,11,09,01,02,993.53
2021,11,09,01,03,993.53
2021,11,09,01,04,993.53
2021,11,09,01,05,993.50
2021,11,09,01,06,993.63
2021,11,09,01,07,993.33
2021,11,09,01,08,993.43
2021,11,09,01,09,993.60
2021,11,09,01,10,993.47
2021,11,09,01,11,993.43
2021,11,09,01,12,993.43
2021,11,09,01,13,993.47
2021,11,09,01,14,993.50
2021,11,09,01,15,993.47
2021,11,09,01,16,993.43
2021,11,09,01,17,993.47
2021,11,09,01,18,993.36
2021,11,09,01,19,993.36
2021,11,09,01,20,993.36
2021,11,09,01,21,993.33
2021,11,09,01,22,993.23
2021,11,09,01,23,993.23
2021,11,09,01,24,993.23
2021,11,09,01,25,993.19
2021,11,09,01,26,993.23
2021,11,09,01,27,993.23
2021,11,09,01,28,993.16
2021,11,09,01,29,993.13
2021,11,09,01,30,993.19
2021,11,09,01,31,993.13
2021,11,09,01,32,993.26
2021,11,09,01,33,993.26
2021,11,09,01,34,993.26
2021,11,09,01,35,993.26
2021,11,09,01,36,993.33
2021,11,09,01,37,993.30
2021,11,09,01,38,993.19
2021,11,09,01,39,993.40
2021,11,09,01,40,993.40
2021,11,09,01,41,993.30
2021,11,09,01,42,993.26
2021,11,09,01,43,993.33
2021,11,09,01,44,993.26
2021,11,09,01,45,993.23
2021,11,09,01,46,993.23
2021,11,09,01,47,993.19
2021,11,09,01,48,993.23
2021,11,09,01,49,993.13
2021,11,09,01,50,993.16
2021,11,09,01,51,993.13
2021,11,09,01,52,993.13
2021,11,09,01,53,993.09
2021,11,09,01,54,993.13
2021,11,09,01,55,993.09
2021,11,09,01,56,993.13
2021,11,09,01,57,993.06
2021,11,09,01,58,993.16
2021,11,09,01,59,992.96
2021,11,09,02,00,992.96
2021,11,09,02,01,993.06
2021,11,09,02,02,992.96
2021,11,09,02,03,992.96
2021,11,09,02,04,992.92
2021,11,09,02,05,992.99
2021,11,09,02,06,992.92
2021,11,09,02,07,992.92
2021,11,09,02,08,992.92
2021,11,09,02,09,992.79
2021,11,09,02,10,992.82
2021,11,09,02,11,992.69
2021,11,09,02,12,992.82
2021,11,09,02,13,992.92
2021,11,09,02,14,992.86
2021,11,09,02,15,992.82
2021,11,09,02,16,992.86
2021,11,09,02,17,992.75
2021,11,09,02,18,992.75
2021,11,09,02,19,992.79
2021,11,09,02,20,992.82
2021,11,09,02,21,992.75
2021,11,09,02,22,992.79
2021,11,09,02,23,992.79
2021,11,09,02,24,992.82
2021,11,09,02,25,992.79
2021,11,09,02,26,992.58
2021,11,09,02,27,992.62
2021,11,09,02,28,992.62
2021,11,09,02,29,992.48
2021,11,09,02,30,992.45
2021,11,09,02,31,992.52
2021,11,09,02,32,992.48
2021,11,09,02,33,992.48
2021,11,09,02,34,992.38
2021,11,09,02,35,992.35
2021,11,09,02,36,992.35
2021,11,09,02,37,992.28
2021,11,09,02,38,992.18
2021,11,09,02,39,992.35
2021,11,09,02,40,992.28
2021,11,09,02,41,992.14
2021,11,09,02,42,992.18
2021,11,09,02,43,992.08
2021,11,09,02,44,992.11
2021,11,09,02,45,992.04
2021,11,09,02,46,992.20
2021,11,09,02,47,992.04
2021,11,09,02,48,992.14
2021,11,09,02,49,992.08
2021,11,09,02,50,991.94
2021,11,09,02,51,992.01
2021,11,09,02,52,991.94
2021,11,09,02,53,991.81
2021,11,09,02,54,991.84
2021,11,09,02,55,991.70
2021,11,09,02,56,991.77
2021,11,09,02,57,991.77
2021,11,09,02,58,991.57
2021,11,09,02,59,991.60
2021,11,09,03,00,991.60
2021,11,09,03,01,991.60
2021,11,09,03,02,991.60
2021,11,09,03,03,991.60
2021,11,09,03,04,991.64
2021,11,09,03,05,991.67
2021,11,09,03,06,991.70
2021,11,09,03,07,991.60
2021,11,09,03,08,991.60
2021,11,09,03,09,991.73
2021,11,09,03,10,991.64
2021,11,09,03,11,991.67
2021,11,09,03,12,991.57
2021,11,09,03,13,991.50
2021,11,09,03,14,991.50
2021,11,09,03,15,991.57
2021,11,09,03,16,991.47
2021,11,09,03,17,991.33
2021,11,09,03,18,991.40
2021,11,09,03,19,991.33
2021,11,09,03,20,991.37
2021,11,09,03,21,991.40
2021,11,09,03,22,991.47
2021,11,09,03,23,991.33
2021,11,09,03,24,991.37
2021,11,09,03,25,991.33
2021,11,09,03,26,991.26
2021,11,09,03,27,991.33
2021,11,09,03,28,991.33
2021,11,09,03,29,991.33
2021,11,09,03,30,991.16
2021,11,09,03,31,991.32
2021,11,09,03,32,991.43
2021,11,09,03,33,991.20
2021,11,09,03,34,991.26
2021,11,09,03,35,991.33
2021,11,09,03,36,991.33
2021,11,09,03,37,991.23
2021,11,09,03,38,991.30
2021,11,09,03,39,991.33
2021,11,09,03,40,991.26
2021,11,09,03,41,991.13
2021,11,09,03,42,991.30
2021,11,09,03,43,991.30
2021,11,09,03,44,991.23
2021,11,09,03,45,991.09
2021,11,09,03,46,991.26
2021,11,09,03,47,991.16
2021,11,09,03,48,991.23
2021,11,09,03,49,991.26
2021,11,09,03,50,991.23
2021,11,09,03,51,991.23
2021,11,09,03,52,991.23
2021,11,09,03,53,991.26
2021,11,09,03,54,991.16
2021,11,09,03,55,991.16
2021,11,09,03,56,991.20
2021,11,09,03,57,991.20
2021,11,09,03,58,991.20
2021,11,09,03,59,991.03
2021,11,09,04,00,991.09
2021,11,09,04,01,990.99
2021,11,09,04,02,991.09
2021,11,09,04,03,990.99
2021,11,09,04,04,990.93
2021,11,09,04,05,990.99
2021,11,09,04,06,990.93
2021,11,09,04,07,990.89
2021,11,09,04,08,990.96
2021,11,09,04,09,990.86
2021,11,09,04,10,990.93
2021,11,09,04,11,991.03
2021,11,09,04,12,990.89
2021,11,09,04,13,991.09
2021,11,09,04,14,990.96
2021,11,09,04,15,990.99
2021,11,09,04,16,990.99
2021,11,09,04,17,991.03
2021,11,09,04,18,991.03
2021,11,09,04,19,990.99
2021,11,09,04,20,990.89
2021,11,09,04,21,990.99
2021,11,09,04,22,990.99
2021,11,09,04,23,990.96
2021,11,09,04,24,990.93
2021,11,09,04,25,990.89
2021,11,09,04,26,990.93
2021,11,09,04,27,990.93
2021,11,09,04,28,990.93
2021,11,09,04,29,990.89
2021,11,09,04,30,990.86
2021,11,09,04,31,991.03
2021,11,09,04,32,990.86
2021,11,09,04,33,990.86
2021,11,09,04,34,990.82
2021,11,09,04,35,990.76
2021,11,09,04,36,990.72
2021,11,09,04,37,990.76
2021,11,09,04,38,990.79
2021,11,09,04,39,990.72
2021,11,09,04,40,990.79
2021,11,09,04,41,990.72
2021,11,09,04,42,990.72
2021,11,09,04,43,990.72
2021,11,09,04,44,990.72
2021,11,09,04,45,990.62
2021,11,09,04,46,990.81
2021,11,09,04,47,990.76
2021,11,09,04,48,990.72
2021,11,09,04,49,990.76
2021,11,09,04,50,990.65
2021,11,09,04,51,990.65
2021,11,09,04,52,990.55
2021,11,09,04,53,990.55
2021,11,09,04,54,990.59
2021,11,09,04,55,990.62
2021,11,09,04,56,990.59
2021,11,09,04,57,990.49
2021,11,09,04,58,990.59
2021,11,09,04,59,990.55
2021,11,09,05,00,990.55
2021,11,09,05,01,990.38
2021,11,09,05,02,990.38
2021,11,09,05,03,990.35
2021,11,09,05,04,990.25
2021,11,09,05,05,990.28
2021,11,09,05,06,990.28
2021,11,09,05,07,990.21
2021,11,09,05,08,990.18
2021,11,09,05,09,990.37
2021,11,09,05,10,990.35
2021,11,09,05,11,990.25
2021,11,09,05,12,990.21
2021,11,09,05,13,990.15
2021,11,09,05,14,990.08
2021,11,09,05,15,990.32
2021,11,09,05,16,990.32
2021,11,09,05,17,990.42
2021,11,09,05,18,990.38
2021,11,09,05,19,990.35
2021,11,09,05,20,990.32
2021,11,09,05,21,990.08
2021,11,09,05,22,990.18
2021,11,09,05,23,990.28
2021,11,09,05,24,990.28
2021,11,09,05,25,990.21
2021,11,09,05,26,990.45
2021,11,09,05,27,990.15
2021,11,09,05,28,990.25
2021,11,09,05,29,990.25
2021,11,09,05,30,990.04
2021,11,09,05,31,989.88
2021,11,09,05,32,990.11
2021,11,09,05,33,990.15
2021,11,09,05,34,990.32
2021,11,09,05,35,990.52
2021,11,09,05,36,990.59
2021,11,09,05,37,990.55
2021,11,09,05,38,990.52
2021,11,09,05,39,990.59
2021,11,09,05,40,990.65
2021,11,09,05,41,990.72
2021,11,09,05,42,990.79
2021,11,09,05,43,990.89
2021,11,09,05,44,990.99
2021,11,09,05,45,991.09
2021,11,09,05,46,990.96
2021,11,09,05,47,990.65
2021,11,09,05,48,990.93
2021,11,09,05,49,991.38
2021,11,09,05,50,991.33
2021,11,09,05,51,991.67
2021,11,09,05,52,991.67
2021,11,09,05,53,992.79
2021,11,09,05,54,993.09
2021,11,09,05,55,992.99
2021,11,09,05,56,992.99
2021,11,09,05,57,992.72
2021,11,09,05,58,992.72
2021,11,09,05,59,992.65
2021,11,09,06,01,992.81
2021,11,09,06,02,992.82
2021,11,09,06,03,992.75
2021,11,09,06,04,992.92
2021,11,09,06,05,992.72
2021,11,09,06,06,992.82
2021,11,09,06,07,992.69
2021,11,09,06,08,992.75
2021,11,09,06,09,992.75
2021,11,09,06,10,992.91
2021,11,09,06,11,992.89
2021,11,09,06,12,993.03
2021,11,09,06,13,993.06
2021,11,09,06,14,993.50
2021,11,09,06,15,993.15
2021,11,09,06,16,993.26
2021,11,09,06,17,993.13
2021,11,09,06,18,993.36
2021,11,09,06,19,993.30
2021,11,09,06,20,993.53
2021,11,09,06,21,993.60
2021,11,09,06,22,993.60
2021,11,09,06,23,993.63
2021,11,09,06,24,993.97
2021,11,09,06,25,993.94
2021,11,09,06,26,993.97
2021,11,09,06,27,994.04
2021,11,09,06,28,993.94
2021,11,09,06,29,994.10
2021,11,09,06,30,994.14
2021,11,09,06,31,994.45
2021,11,09,06,32,994.35
2021,11,09,06,33,994.31
2021,11,09,06,34,994.28
2021,11,09,06,35,994.14
2021,11,09,06,36,994.24
2021,11,09,06,37,994.21
2021,11,09,06,38,994.48
2021,11,09,06,39,994.62
2021,11,09,06,40,994.68
2021,11,09,06,41,994.75
2021,11,09,06,42,994.82
2021,11,09,06,43,994.89
2021,11,09,06,44,994.85
2021,11,09,06,45,994.96
2021,11,09,06,46,995.02
2021,11,09,06,47,995.12
2021,11,09,06,48,995.33
2021,11,09,06,49,995.36
2021,11,09,06,50,995.36
2021,11,09,06,51,995.43
2021,11,09,06,52,995.50
2021,11,09,06,53,995.50
2021,11,09,06,54,995.67
2021,11,09,06,55,995.84
2021,11,09,06,56,995.73
2021,11,09,06,57,995.80
2021,11,09,06,58,995.97
2021,11,09,06,59,996.01
2021,11,09,07,00,996.11
2021,11,09,07,01,996.11
2021,11,09,07,02,996.14
2021,11,09,07,03,996.24
2021,11,09,07,04,996.31
2021,11,09,07,05,996.41
2021,11,09,07,06,996.41
2021,11,09,07,07,996.58
2021,11,09,07,08,996.61
2021,11,09,07,09,996.61
2021,11,09,07,10,996.68
2021,11,09,07,11,996.65
2021,11,09,07,12,996.78
2021,11,09,07,13,996.85
2021,11,09,07,14,996.85
2021,11,09,07,15,996.78
2021,11,09,07,16,996.85
2021,11,09,07,17,997.02
2021,11,09,07,18,997.12
2021,11,09,07,19,997.19
2021,11,09,07,20,997.09
2021,11,09,07,21,997.16
2021,11,09,07,22,997.26
2021,11,09,07,23,997.22
2021,11,09,07,24,997.35
2021,11,09,07,25,997.49
2021,11,09,07,26,997.46
2021,11,09,07,27,997.46
2021,11,09,07,28,997.50
2021,11,09,07,29,997.65
2021,11,09,07,30,997.73
2021,11,09,07,31,997.77
2021,11,09,07,32,997.97
2021,11,09,07,33,998.17
2021,11,09,07,34,998.14
2021,11,09,07,35,998.07
2021,11,09,07,36,998.10
2021,11,09,07,37,998.27
2021,11,09,07,38,998.34
2021,11,09,07,39,998.34
2021,11,09,07,40,998.38
2021,11,09,07,41,998.44
2021,11,09,07,42,998.57
2021,11,09,07,43,999.07
2021,11,09,07,44,998.99
2021,11,09,07,45,999.26
2021,11,09,07,46,999.76
2021,11,09,07,47,999.59
2021,11,09,07,48,999.56
2021,11,09,07,49,999.53
2021,11,09,07,50,999.56
2021,11,09,07,51,999.49
2021,11,09,07,52,999.49
2021,11,09,07,53,999.59
2021,11,09,07,54,999.83
2021,11,09,07,55,999.46
2021,11,09,07,56,999.43
2021,11,09,07,57,999.53
2021,11,09,07,58,999.36
2021,11,09,07,59,999.43
2021,11,09,08,00,999.49
2021,11,09,08,01,999.39
2021,11,09,08,02,999.56
2021,11,09,08,03,999.66
2021,11,09,08,04,999.56
2021,11,09,08,05,999.70
2021,11,09,08,06,999.90
2021,11,09,08,07,999.83
2021,11,09,08,08,999.76
2021,11,09,08,09,999.90
2021,11,09,08,10,1000.03
2021,11,09,08,11,1000.00
2021,11,09,08,12,1000.03
2021,11,09,08,13,1000.00
2021,11,09,08,14,1000.10
2021,11,09,08,15,1000.14
2021,11,09,08,16,1000.14
2021,11,09,08,17,1000.27
2021,11,09,08,18,1000.20
2021,11,09,08,19,1000.31
2021,11,09,08,20,1000.34
2021,11,09,08,21,1000.44
2021,11,09,08,22,1000.51
2021,11,09,08,23,1000.54
2021,11,09,08,24,1000.54
2021,11,09,08,25,1000.61
2021,11,09,08,26,1000.64
2021,11,09,08,27,1000.61
2021,11,09,08,28,1000.61
2021,11,09,08,29,1000.68
2021,11,09,08,30,1000.68
2021,11,09,08,31,1000.78
2021,11,09,08,32,1000.78
2021,11,09,08,33,1000.81
2021,11,09,08,34,1000.97
2021,11,09,08,35,1000.95
2021,11,09,08,36,1001.02
2021,11,09,08,37,1001.08
2021,11,09,08,38,1001.05
2021,11,09,08,39,1001.12
2021,11,09,08,40,1001.25
2021,11,09,08,41,1001.29
2021,11,09,08,42,1001.36
2021,11,09,08,43,1001.29
2021,11,09,08,44,1001.25
2021,11,09,08,45,1001.46
2021,11,09,08,46,1001.56
2021,11,09,08,47,1001.63
2021,11,09,08,48,1001.69
2021,11,09,08,49,1001.76
2021,11,09,08,50,1001.83
2021,11,09,08,51,1001.97
2021,11,09,08,52,1001.97
2021,11,09,08,53,1002.07
2021,11,09,08,54,1002.07
2021,11,09,08,55,1002.00
2021,11,09,08,56,1002.17
2021,11,09,08,57,1002.10
2021,11,09,08,58,1002.24
2021,11,09,08,59,1002.17
2021,11,09,09,00,1002.37
2021,11,09,09,01,1002.24
2021,11,09,09,02,1002.17
2021,11,09,09,03,1002.27
2021,11,09,09,04,1002.34
2021,11,09,09,05,1002.30
2021,11,09,09,06,1002.30
2021,11,09,09,07,1002.41
2021,11,09,09,08,1002.44
2021,11,09,09,09,1002.47
2021,11,09,09,10,1002.44
2021,11,09,09,11,1002.30
2021,11,09,09,12,1002.47
2021,11,09,09,13,1002.44
2021,11,09,09,14,1002.34
2021,11,09,09,15,1002.34
2021,11,09,09,16,1002.30
2021,11,09,09,17,1002.27
2021,11,09,09,18,1002.24
2021,11,09,09,19,1002.24
2021,11,09,09,20,1002.20
2021,11,09,09,21,1002.17
2021,11,09,09,22,1002.13
2021,11,09,09,23,1002.10
2021,11,09,09,24,1002.03
2021,11,09,09,25,1002.10
2021,11,09,09,26,1002.00
2021,11,09,09,27,1001.97
2021,11,09,09,28,1002.07
2021,11,09,09,29,1002.07
2021,11,09,09,30,1002.03
2021,11,09,09,31,1002.13
2021,11,09,09,32,1002.13
2021,11,09,09,33,1002.07
2021,11,09,09,34,1002.00
2021,11,09,09,35,1002.13
2021,11,09,09,36,1002.10
2021,11,09,09,37,1002.10
2021,11,09,09,38,1002.17
2021,11,09,09,39,1002.20
2021,11,09,09,40,1002.13
2021,11,09,09,41,1002.24
2021,11,09,09,42,1002.30
2021,11,09,09,43,1002.20
2021,11,09,09,44,1002.37
2021,11,09,09,45,1002.34
2021,11,09,09,46,1002.34
2021,11,09,09,47,1002.44
2021,11,09,09,48,1002.54
2021,11,09,09,49,1002.61
2021,11,09,09,50,1002.68
2021,11,09,09,51,1002.78
2021,11,09,09,52,1002.98
2021,11,09,09,53,1002.78
2021,11,09,09,54,1002.78
2021,11,09,09,55,1002.74
2021,11,09,09,56,1002.78
2021,11,09,09,57,1002.78
2021,11,09,09,58,1002.78
2021,11,09,09,59,1002.91
2021,11,09,10,00,1003.01
2021,11,09,10,01,1002.98
2021,11,09,10,02,1002.88
2021,11,09,10,03,1002.91
2021,11,09,10,04,1002.91
2021,11,09,10,05,1002.85
2021,11,09,10,06,1002.91
2021,11,09,10,07,1003.01
2021,11,09,10,08,1002.95
2021,11,09,10,09,1003.01
2021,11,09,10,10,1003.15
2021,11,09,10,11,1003.05
2021,11,09,10,12,1003.12
2021,11,09,10,13,1003.15
2021,11,09,10,14,1003.35
2021,11,09,10,15,1003.56
2021,11,09,10,16,1003.52
2021,11,09,10,17,1003.56
2021,11,09,10,18,1003.46
2021,11,09,10,19,1003.56
2021,11,09,10,20,1003.59
2021,11,09,10,21,1003.52
2021,11,09,10,22,1003.40
2021,11,09,10,23,1003.23
2021,11,09,10,24,1003.29
2021,11,09,10,25,1003.46
2021,11,09,10,26,1003.52
2021,11,09,10,27,1003.40
2021,11,09,10,28,1003.73
2021,11,09,10,29,1003.62
2021,11,09,10,30,1003.62
2021,11,09,10,31,1003.59
2021,11,09,10,32,1003.72
2021,11,09,10,33,1003.73
2021,11,09,10,34,1003.57
2021,11,09,10,35,1003.52
2021,11,09,10,36,1003.52
2021,11,09,10,37,1003.46
2021,11,09,10,38,1003.56
2021,11,09,10,39,1003.49
2021,11,09,10,40,1003.35
2021,11,09,10,41,1003.29
2021,11,09,10,42,1003.46
2021,11,09,10,43,1003.32
2021,11,09,10,44,1003.05
2021,11,09,10,45,1003.29
2021,11,09,10,46,1003.35
2021,11,09,10,47,1003.46
2021,11,09,10,48,1003.49
2021,11,09,10,49,1003.49
2021,11,09,10,50,1003.46
2021,11,09,10,51,1003.59
2021,11,09,10,52,1003.62
2021,11,09,10,53,1003.73
2021,11,09,10,54,1003.76
2021,11,09,10,55,1003.93
2021,11,09,10,56,1003.86
2021,11,09,10,57,1003.79
2021,11,09,10,58,1003.86
2021,11,09,10,59,1003.90
2021,11,09,11,00,1003.96
2021,11,09,11,01,1004.10
2021,11,09,11,02,1004.06
2021,11,09,11,03,1004.13
2021,11,09,11,04,1004.00
2021,11,09,11,05,1004.03
2021,11,09,11,06,1004.13
2021,11,09,11,07,1004.17
2021,11,09,11,08,1004.17
2021,11,09,11,09,1004.29
2021,11,09,11,10,1004.27
2021,11,09,11,11,1004.30
2021,11,09,11,12,1004.34
2021,11,09,11,13,1004.20
2021,11,09,11,14,1004.00
2021,11,09,11,15,1004.17
2021,11,09,11,16,1003.93
2021,11,09,11,17,1004.03
2021,11,09,11,18,1004.00
2021,11,09,11,19,1003.96
2021,11,09,11,20,1004.06
2021,11,09,11,21,1004.17
2021,11,09,11,22,1004.13
2021,11,09,11,23,1004.17
2021,11,09,11,24,1004.01
2021,11,09,11,25,1004.03
2021,11,09,11,26,1004.00
2021,11,09,11,27,1004.00
2021,11,09,11,28,1004.17
2021,11,09,11,29,1004.27
2021,11,09,11,30,1004.17
2021,11,09,11,31,1004.23
2021,11,09,11,32,1004.20
2021,11,09,11,33,1004.23
2021,11,09,11,34,1004.23
2021,11,09,11,35,1004.27
2021,11,09,11,36,1004.44
2021,11,09,11,37,1004.30
2021,11,09,11,38,1004.34
2021,11,09,11,39,1004.17
2021,11,09,11,40,1004.27
2021,11,09,11,41,1004.27
2021,11,09,11,42,1004.17
2021,11,09,11,43,1004.13
2021,11,09,11,44,1004.17
2021,11,09,11,45,1004.01
2021,11,09,11,46,1003.87
2021,11,09,11,47,1003.96
2021,11,09,11,48,1004.03
2021,11,09,11,49,1004.00
2021,11,09,11,50,1004.00
2021,11,09,11,51,1004.06
2021,11,09,11,52,1004.13
2021,11,09,11,53,1004.10
2021,11,09,11,54,1004.13
2021,11,09,11,55,1004.13
2021,11,09,11,56,1004.30
2021,11,09,11,57,1004.17
2021,11,09,11,58,1004.06
2021,11,09,11,59,1004.27
2021,11,09,12,00,1004.17
2021,11,09,12,01,1004.10
2021,11,09,12,02,1004.10
2021,11,09,12,03,1004.03
2021,11,09,12,04,1004.06
2021,11,09,12,05,1004.17
2021,11,09,12,06,1004.06
2021,11,09,12,07,1004.30
2021,11,09,12,08,1004.23
2021,11,09,12,09,1004.23
2021,11,09,12,10,1004.34
2021,11,09,12,11,1004.46
2021,11,09,12,12,1004.40
2021,11,09,12,13,1004.50
2021,11,09,12,14,1004.50
2021,11,09,12,15,1004.47
2021,11,09,12,16,1004.40
2021,11,09,12,17,1004.50
2021,11,09,12,18,1004.47
2021,11,09,12,19,1004.57
2021,11,09,12,20,1004.54
2021,11,09,12,21,1004.44
2021,11,09,12,22,1004.40
2021,11,09,12,23,1004.47
2021,11,09,12,24,1004.40
2021,11,09,12,25,1004.30
2021,11,09,12,26,1004.34
2021,11,09,12,27,1004.21
2021,11,09,12,28,1004.23
2021,11,09,12,29,1004.30
2021,11,09,12,30,1004.44
2021,11,09,12,31,1004.50
2021,11,09,12,32,1004.47
2021,11,09,12,33,1004.54
2021,11,09,12,34,1004.50
2021,11,09,12,35,1004.44
2021,11,09,12,36,1004.40
2021,11,09,12,37,1004.34
2021,11,09,12,38,1004.50
2021,11,09,12,39,1004.40
2021,11,09,12,40,1004.40
2021,11,09,12,41,1004.67
2021,11,09,12,42,1004.74
2021,11,09,12,43,1004.78
2021,11,09,12,44,1004.81
2021,11,09,12,45,1004.84
2021,11,09,12,46,1004.88
2021,11,09,12,47,1004.95
2021,11,09,12,48,1004.98
2021,11,09,12,49,1004.98
2021,11,09,12,50,1005.05
2021,11,09,12,51,1005.05
2021,11,09,12,52,1004.91
2021,11,09,12,53,1004.78
2021,11,09,12,54,1004.91
2021,11,09,12,55,1005.01
2021,11,09,12,56,1005.11
2021,11,09,12,57,1005.05
2021,11,09,12,58,1004.98
2021,11,09,12,59,1005.05
2021,11,09,13,00,1004.95
2021,11,09,13,01,1005.10
2021,11,09,13,02,1005.05
2021,11,09,13,03,1005.17
2021,11,09,13,04,1005.18
2021,11,09,13,05,1005.18
2021,11,09,13,06,1005.34
2021,11,09,13,07,1005.39
2021,11,09,13,08,1005.35
2021,11,09,13,09,1005.54
2021,11,09,13,10,1005.45
2021,11,09,13,11,1005.52
2021,11,09,13,12,1005.45
2021,11,09,13,13,1005.55
2021,11,09,13,14,1005.59
2021,11,09,13,15,1005.66
2021,11,09,13,16,1005.55
2021,11,09,13,17,1005.55
2021,11,09,13,18,1005.55
2021,11,09,13,19,1005.66
2021,11,09,13,20,1005.62
2021,11,09,13,21,1005.62
2021,11,09,13,22,1005.69
2021,11,09,13,23,1005.79
2021,11,09,13,24,1005.66
2021,11,09,13,25,1005.62
2021,11,09,13,26,1005.82
2021,11,09,13,27,1005.76
2021,11,09,13,28,1005.88
2021,11,09,13,29,1006.02
2021,11,09,13,30,1005.96
2021,11,09,13,31,1006.09
2021,11,09,13,32,1006.16
2021,11,09,13,33,1006.04
2021,11,09,13,34,1006.10
2021,11,09,13,35,1006.27
2021,11,09,13,36,1006.30
2021,11,09,13,37,1006.23
2021,11,09,13,38,1006.43
2021,11,09,13,39,1006.50
2021,11,09,13,40,1006.54
2021,11,09,13,41,1006.50
2021,11,09,13,42,1006.54
2021,11,09,13,43,1006.47
2021,11,09,13,44,1006.57
2021,11,09,13,45,1006.50
2021,11,09,13,46,1006.40
2021,11,09,13,47,1006.37
2021,11,09,13,48,1006.33
2021,11,09,13,49,1006.37
2021,11,09,13,50,1006.30
2021,11,09,13,51,1006.16
2021,11,09,13,52,1006.32
2021,11,09,13,53,1006.37
2021,11,09,13,54,1006.40
2021,11,09,13,55,1006.47
2021,11,09,13,56,1006.70
2021,11,09,13,57,1006.64
2021,11,09,13,58,1006.67
2021,11,09,13,59,1006.67
2021,11,09,14,00,1006.54
2021,11,09,14,01,1006.54
2021,11,09,14,02,1006.60
2021,11,09,14,03,1006.40
2021,11,09,14,04,1006.57
2021,11,09,14,05,1006.57
2021,11,09,14,06,1006.57
2021,11,09,14,07,1006.54
2021,11,09,14,08,1006.60
2021,11,09,14,09,1006.64
2021,11,09,14,10,1006.57
2021,11,09,14,11,1006.57
2021,11,09,14,12,1006.73
2021,11,09,14,13,1006.64
2021,11,09,14,14,1006.64
2021,11,09,14,15,1006.60
2021,11,09,14,16,1006.74
2021,11,09,14,17,1006.64
2021,11,09,14,18,1006.64
2021,11,09,14,19,1006.81
2021,11,09,14,20,1006.91
2021,11,09,14,21,1007.04
2021,11,09,14,22,1006.98
2021,11,09,14,23,1007.01
2021,11,09,14,24,1007.11
2021,11,09,14,25,1007.04
2021,11,09,14,26,1007.08
2021,11,09,14,29,1006.98
2021,11,09,14,30,1006.81
2021,11,09,14,31,1006.84
2021,11,09,14,32,1006.74
2021,11,09,14,33,1006.77
2021,11,09,14,34,1006.84
2021,11,09,14,35,1006.72
2021,11,09,14,36,1006.60
2021,11,09,14,37,1006.60
2021,11,09,14,38,1006.57
2021,11,09,14,39,1006.71
2021,11,09,14,40,1006.50
2021,11,09,14,41,1006.44
2021,11,09,14,42,1006.33
2021,11,09,14,43,1006.47
2021,11,09,14,44,1006.44
2021,11,09,14,45,1006.44
2021,11,09,14,46,1006.63
2021,11,09,14,47,1006.80
2021,11,09,14,48,1006.84
2021,11,09,14,49,1007.03
2021,11,09,14,50,1007.11
2021,11,09,14,51,1007.28
2021,11,09,14,52,1007.35
2021,11,09,14,53,1007.25
2021,11,09,14,54,1006.98
2021,11,09,14,55,1006.84
2021,11,09,14,56,1006.94
2021,11,09,14,57,1007.15
2021,11,09,14,58,1007.31
2021,11,09,14,59,1007.51
2021,11,09,15,00,1007.76
2021,11,09,15,01,1007.92
2021,11,09,15,02,1007.99
2021,11,09,15,03,1007.89
2021,11,09,15,04,1008.02
2021,11,09,15,05,1008.09
2021,11,09,15,06,1008.03
2021,11,09,15,07,1008.16
2021,11,09,15,08,1008.20
2021,11,09,15,09,1008.26
2021,11,09,15,10,1008.43
2021,11,09,15,11,1008.43
2021,11,09,15,12,1008.43
2021,11,09,15,13,1008.40
2021,11,09,15,14,1008.33
2021,11,09,15,15,1008.43
2021,11,09,15,16,1008.31
2021,11,09,15,17,1008.33
2021,11,09,15,18,1008.26
2021,11,09,15,19,1008.37
2021,11,09,15,20,1008.26
2021,11,09,15,21,1008.46
2021,11,09,15,22,1008.30
2021,11,09,15,23,1008.50
2021,11,09,15,24,1008.40
2021,11,09,15,25,1008.40
2021,11,09,15,26,1008.40
2021,11,09,15,27,1008.43
2021,11,09,15,28,1008.43
2021,11,09,15,29,1008.33
2021,11,09,15,30,1008.37
2021,11,09,15,31,1008.40
2021,11,09,15,32,1008.47
2021,11,09,15,33,1008.57
2021,11,09,15,34,1008.40
2021,11,09,15,35,1008.43
2021,11,09,15,36,1008.53
2021,11,09,15,37,1008.47
2021,11,09,15,38,1008.40
2021,11,09,15,39,1008.47
2021,11,09,15,40,1008.57
2021,11,09,15,41,1008.53
2021,11,09,15,42,1008.53
2021,11,09,15,43,1008.47
2021,11,09,15,44,1008.47
2021,11,09,15,45,1008.47
2021,11,09,15,46,1008.53
2021,11,09,15,47,1008.47
2021,11,09,15,48,1008.50
2021,11,09,15,49,1008.53
2021,11,09,15,50,1008.50
2021,11,09,15,51,1008.64
2021,11,09,15,52,1008.53
2021,11,09,15,53,1008.57
2021,11,09,15,54,1008.53
2021,11,09,15,55,1008.60
2021,11,09,15,56,1008.57
2021,11,09,15,57,1008.53
2021,11,09,15,58,1008.66
2021,11,09,15,59,1008.70
2021,11,09,16,00,1008.74
2021,11,09,16,01,1008.81
2021,11,09,16,02,1008.67
2021,11,09,16,03,1008.81
2021,11,09,16,04,1008.91
2021,11,09,16,05,1009.08
2021,11,09,16,06,1009.01
2021,11,09,16,07,1009.11
2021,11,09,16,08,1009.21
2021,11,09,16,09,1009.25
2021,11,09,16,10,1009.21
2021,11,09,16,11,1009.28
2021,11,09,16,12,1009.25
2021,11,09,16,13,1009.25
2021,11,09,16,14,1009.31
2021,11,09,16,15,1009.21
2021,11,09,16,16,1009.25
2021,11,09,16,17,1009.18
2021,11,09,16,18,1009.18